Location: Cerezo de Arriba
(41.2389°N, 3.5585°W)
Time: 04:56:11
(UTC+00:00)

Okean-O - Pass Details

Date: 19 May 2025
Orbit: 628 x 631 km, 98.0° (Epoch: 22 June)

Event Time Altitude Azimuth Distance (km) Brightness Sun altitude
Exits shadow 21:41:08 17° 209° (SSW) 1,617 4.5 -19.6°
Maximum altitude 21:43:54 32° 263° (W) 1,092 4.1 -20.0°
Drops below altitude 10° 21:47:51 10° 327° (NNW) 2,020 6.4 -20.4°
Sets 21:50:15 0° 337° (NNW) 2,932 7.5 -20.7°
